| time (UTC) | temp F | wind direction | speed MPH | gust MPH | rain 1hr in | rain 24hr in | rain mn in | humidity % | barometer mb |
| 20260505094117 | 71 | 95 | 1.0 | 2.0 | 0.00 | 0.00 | 0.00 | 85 | 1017.0 |
| 20260505093615 | 71 | 48 | 2.0 | 3.0 | 0.00 | 0.00 | 0.00 | 85 | 1017.0 |
| 20260505093116 | 71 | 49 | 2.0 | 3.0 | 0.00 | 0.00 | 0.00 | 84 | 1018.0 |
| 20260505092617 | 71 | 68 | 3.0 | 3.0 | 0.00 | 0.00 | 0.00 | 85 | 1017.0 |
| 20260505092117 | 71 | 59 | 2.0 | 3.0 | 0.00 | 0.00 | 0.00 | 84 | 1017.0 |
| 20260505091617 | 71 | 78 | 2.0 | 3.0 | 0.00 | 0.00 | 0.00 | 84 | 1017.0 |
| 20260505091118 | 71 | 50 | 4.0 | 4.0 | 0.00 | 0.00 | 0.00 | 85 | 1018.0 |
| 20260505090616 | 71 | 64 | 2.0 | 4.0 | 0.00 | 0.00 | 0.00 | 85 | 1017.0 |
| 20260505090115 | 71 | 60 | 3.0 | 4.0 | 0.00 | 0.00 | 0.00 | 85 | 1017.0 |
| 20260505085617 | 71 | 61 | 3.0 | 4.0 | 0.00 | 0.00 | 0.00 | 85 | 1017.0 |
| 20260505085116 | 71 | 48 | 2.0 | 3.0 | 0.00 | 0.00 | 0.00 | 85 | 1017.0 |
| 20260505084617 | 71 | 50 | 2.0 | 3.0 | 0.00 | 0.00 | 0.00 | 85 | 1017.0 |
| 20260505083628 | 71 | 77 | 3.0 | 4.0 | 0.00 | 0.00 | 0.00 | 84 | 1017.0 |
| 20260505083117 | 72 | 52 | 3.0 | 4.0 | 0.00 | 0.00 | 0.00 | 84 | 1017.0 |
| 20260505082615 | 72 | 60 | 3.0 | 4.0 | 0.00 | 0.00 | 0.00 | 83 | 1017.0 |
| 20260505082115 | 72 | 60 | 3.0 | 4.0 | 0.00 | 0.00 | 0.00 | 83 | 1017.0 |
| 20260505081617 | 72 | 74 | 3.0 | 4.0 | 0.00 | 0.00 | 0.00 | 83 | 1016.0 |
| 20260505081117 | 72 | 35 | 2.0 | 2.0 | 0.00 | 0.00 | 0.00 | 83 | 1017.0 |
| 20260505080615 | 72 | 37 | 2.0 | 3.0 | 0.00 | 0.00 | 0.00 | 83 | 1016.0 |
| 20260505080117 | 72 | 68 | 3.0 | 5.0 | 0.00 | 0.00 | 0.00 | 82 | 1016.0 |
| 20260505075616 | 72 | 58 | 3.0 | 4.0 | 0.00 | 0.00 | 0.00 | 82 | 1016.0 |
| 20260505075120 | 72 | 50 | 3.0 | 5.0 | 0.00 | 0.00 | 0.00 | 82 | 1016.0 |
| 20260505074617 | 72 | 32 | 5.0 | 5.0 | 0.00 | 0.00 | 0.00 | 82 | 1016.0 |
| 20260505074115 | 72 | 8 | 1.0 | 4.0 | 0.00 | 0.00 | 0.00 | 81 | 1016.0 |
| 20260505073615 | 72 | 27 | 4.0 | 4.0 | 0.00 | 0.00 | 0.00 | 81 | 1016.0 |
| 20260505073117 | 73 | 53 | 3.0 | 4.0 | 0.00 | 0.00 | 0.00 | 81 | 1016.0 |
| 20260505072615 | 73 | 38 | 4.0 | 5.0 | 0.00 | 0.00 | 0.00 | 80 | 1016.0 |
| 20260505072116 | 73 | 39 | 3.0 | 6.0 | 0.00 | 0.00 | 0.00 | 80 | 1016.0 |
| 20260505071616 | 73 | 46 | 5.0 | 7.0 | 0.00 | 0.00 | 0.00 | 80 | 1016.0 |
| 20260505071115 | 73 | 31 | 5.0 | 6.0 | 0.00 | 0.00 | 0.00 | 80 | 1016.0 |
| 20260505070203 | 73 | 43 | 4.0 | 8.0 | 0.00 | 0.00 | 0.00 | 79 | 1016.0 |
| 20260505065615 | 73 | 357 | 3.0 | 7.0 | 0.00 | 0.00 | 0.00 | 78 | 1016.0 |
| 20260505065115 | 73 | 6 | 3.0 | 6.0 | 0.00 | 0.00 | 0.00 | 78 | 1016.0 |
| 20260505064616 | 74 | 40 | 5.0 | 6.0 | 0.00 | 0.00 | 0.00 | 77 | 1016.0 |
| 20260505064116 | 74 | 32 | 4.0 | 6.0 | 0.00 | 0.00 | 0.00 | 76 | 1016.0 |
| 20260505063617 | 74 | 49 | 3.0 | 7.0 | 0.00 | 0.00 | 0.00 | 75 | 1016.0 |
| 20260505063117 | 74 | 38 | 4.0 | 10.0 | 0.00 | 0.00 | 0.00 | 74 | 1016.0 |
| 20260505062615 | 74 | 35 | 7.0 | 10.0 | 0.00 | 0.00 | 0.00 | 74 | 1016.0 |
| 20260505062115 | 74 | 42 | 6.0 | 9.0 | 0.00 | 0.00 | 0.00 | 74 | 1016.0 |
| 20260505061615 | 74 | 39 | 6.0 | 9.0 | 0.00 | 0.00 | 0.00 | 73 | 1016.0 |
| 20260505061115 | 75 | 33 | 4.0 | 9.0 | 0.00 | 0.00 | 0.00 | 73 | 1016.0 |
| 20260505060615 | 75 | 64 | 7.0 | 10.0 | 0.00 | 0.00 | 0.00 | 72 | 1016.0 |
| 20260505060115 | 75 | 15 | 4.0 | 7.0 | 0.00 | 0.00 | 0.00 | 71 | 1016.0 |
| 20260505055617 | 75 | 23 | 4.0 | 7.0 | 0.00 | 0.00 | 0.00 | 71 | 1016.0 |
| 20260505055115 | 75 | 31 | 8.0 | 8.0 | 0.00 | 0.00 | 0.00 | 71 | 1016.0 |
| 20260505054615 | 75 | 31 | 7.0 | 9.0 | 0.00 | 0.00 | 0.00 | 71 | 1015.0 |
| 20260505054115 | 75 | 49 | 5.0 | 9.0 | 0.00 | 0.00 | 0.00 | 70 | 1015.0 |
| 20260505053615 | 76 | 62 | 7.0 | 10.0 | 0.00 | 0.00 | 0.00 | 69 | 1015.0 |
| 20260505053116 | 76 | 33 | 4.0 | 10.0 | 0.00 | 0.00 | 0.00 | 69 | 1015.0 |
| 20260505052615 | 76 | 38 | 5.0 | 11.0 | 0.00 | 0.00 | 0.00 | 68 | 1016.0 |
| 20260505052115 | 76 | 73 | 7.0 | 8.0 | 0.00 | 0.00 | 0.00 | 69 | 1016.0 |
| 20260505051616 | 76 | 21 | 5.0 | 11.0 | 0.00 | 0.00 | 0.00 | 68 | 1015.0 |
| 20260505051115 | 77 | 6 | 7.0 | 10.0 | 0.00 | 0.00 | 0.00 | 68 | 1016.0 |
| 20260505050615 | 77 | 19 | 3.0 | 11.0 | 0.00 | 0.00 | 0.00 | 68 | 1016.0 |
| 20260505050115 | 77 | 71 | 6.0 | 10.0 | 0.00 | 0.00 | 0.00 | 68 | 1016.0 |
| 20260505041617 | 80 | 86 | 2.0 | 5.0 | 0.00 | 0.00 | 0.00 | 60 | 1015.0 |
| 20260505041117 | 80 | 284 | 2.0 | 5.0 | 0.00 | 0.00 | 0.00 | 60 | 1015.0 |
| 20260505040617 | 80 | 10 | 2.0 | 3.0 | 0.00 | 0.00 | 0.00 | 60 | 1015.0 |
| 20260505040115 | 80 | 329 | 2.0 | 3.0 | 0.00 | 0.00 | 0.00 | 60 | 1015.0 |
| 20260505035615 | 80 | 332 | 2.0 | 5.0 | 0.00 | 0.00 | 0.00 | 60 | 1015.0 |
| 20260505035116 | 80 | 37 | 3.0 | 4.0 | 0.00 | 0.00 | 0.00 | 60 | 1015.0 |
| 20260505034617 | 80 | 0 | 3.0 | 6.0 | 0.00 | 0.00 | 0.00 | 60 | 1015.0 |
| 20260505034115 | 80 | 50 | 2.0 | 5.0 | 0.00 | 0.00 | 0.00 | 60 | 1015.0 |
| 20260505033615 | 80 | 78 | 3.0 | 5.0 | 0.00 | 0.00 | 0.00 | 59 | 1015.0 |
| 20260505033116 | 81 | 55 | 2.0 | 3.0 | 0.00 | 0.00 | 0.00 | 58 | 1015.0 |
| 20260505032616 | 81 | 351 | 1.0 | 2.0 | 0.00 | 0.00 | 0.00 | 59 | 1015.0 |
| 20260505032115 | 80 | 19 | 3.0 | 3.0 | 0.00 | 0.00 | 0.00 | 60 | 1015.0 |
| 20260505031616 | 80 | 205 | 2.0 | 3.0 | 0.00 | 0.00 | 0.00 | 60 | 1015.0 |
| 20260505031115 | 80 | 336 | 1.0 | 3.0 | 0.00 | 0.00 | 0.00 | 60 | 1015.0 |
| 20260505030615 | 80 | 260 | 1.0 | 5.0 | 0.00 | 0.00 | 0.00 | 60 | 1015.0 |
| 20260505030117 | 80 | 63 | 5.0 | 9.0 | 0.00 | 0.00 | 0.00 | 60 | 1015.0 |
| 20260505025617 | 81 | 147 | 2.0 | 3.0 | 0.00 | 0.00 | 0.00 | 59 | 1015.0 |
| 20260505025119 | 78 | 306 | 2.0 | 3.0 | 0.00 | 0.00 | 0.00 | 61 | 1015.0 |
| 20260505024619 | 78 | 65 | 4.0 | 6.0 | 0.00 | 0.00 | 0.00 | 61 | 1016.0 |
| 20260505024117 | 80 | 91 | 5.0 | 5.0 | 0.00 | 0.00 | 0.00 | 61 | 1016.0 |
| 20260505023616 | 80 | 57 | 3.0 | 4.0 | 0.00 | 0.00 | 0.00 | 60 | 1016.0 |
| 20260505023118 | 81 | 220 | 2.0 | 5.0 | 0.00 | 0.00 | 0.00 | 60 | 1016.0 |
| 20260505022621 | 80 | 321 | 0.0 | 3.0 | 0.00 | 0.00 | 0.00 | 62 | 1016.0 |
| 20260505022117 | 79 | 22 | 2.0 | 3.0 | 0.00 | 0.00 | 0.00 | 64 | 1016.0 |
| 20260505021624 | 79 | 238 | 2.0 | 3.0 | 0.00 | 0.00 | 0.00 | 63 | 1016.0 |
| 20260505021119 | 80 | 185 | 2.0 | 5.0 | 0.00 | 0.00 | 0.00 | 62 | 1016.0 |
| 20260505020620 | 78 | 122 | 0.0 | 2.0 | 0.00 | 0.00 | 0.00 | 64 | 1016.0 |
| 20260505020117 | 78 | 223 | 1.0 | 2.0 | 0.00 | 0.00 | 0.00 | 63 | 1016.0 |
| 20260505015616 | 78 | 235 | 1.0 | 4.0 | 0.00 | 0.00 | 0.00 | 65 | 1016.0 |
| 20260505015115 | 79 | 99 | 3.0 | 5.0 | 0.00 | 0.00 | 0.00 | 64 | 1016.0 |
| 20260505014616 | 78 | 144 | 1.0 | 3.0 | 0.00 | 0.00 | 0.00 | 65 | 1017.0 |
| 20260505014115 | 78 | 218 | 1.0 | 3.0 | 0.00 | 0.00 | 0.00 | 66 | 1016.0 |
| 20260505013615 | 79 | 182 | 4.0 | 4.0 | 0.00 | 0.00 | 0.00 | 63 | 1017.0 |
| 20260505013116 | 80 | 354 | 2.0 | 3.0 | 0.00 | 0.00 | 0.00 | 63 | 1017.0 |
| 20260505012615 | 79 | 232 | 4.0 | 5.0 | 0.00 | 0.00 | 0.00 | 63 | 1017.0 |
| 20260505012115 | 79 | 183 | 3.0 | 5.0 | 0.00 | 0.00 | 0.00 | 64 | 1017.0 |
| 20260505011616 | 78 | 16 | 3.0 | 3.0 | 0.00 | 0.00 | 0.00 | 66 | 1017.0 |
| 20260505011117 | 77 | 21 | 3.0 | 3.0 | 0.00 | 0.00 | 0.00 | 67 | 1017.0 |
| 20260505010615 | 76 | 316 | 2.0 | 3.0 | 0.00 | 0.00 | 0.00 | 69 | 1017.0 |
| 20260505010119 | 77 | 336 | 2.0 | 4.0 | 0.00 | 0.00 | 0.00 | 68 | 1018.0 |
| 20260505005619 | 77 | 288 | 3.0 | 4.0 | 0.00 | 0.00 | 0.00 | 67 | 1018.0 |
| 20260505005117 | 78 | 208 | 5.0 | 6.0 | 0.00 | 0.00 | 0.00 | 68 | 1018.0 |
| 20260505004615 | 75 | 115 | 0.0 | 5.0 | 0.00 | 0.00 | 0.00 | 72 | 1018.0 |
| 20260505004115 | 76 | 37 | 5.0 | 6.0 | 0.00 | 0.00 | 0.00 | 71 | 1018.0 |
| 20260505003615 | 76 | 76 | 3.0 | 3.0 | 0.00 | 0.00 | 0.00 | 72 | 1018.0 |
| 20260505003115 | 76 | 166 | 4.0 | 5.0 | 0.00 | 0.00 | 0.00 | 73 | 1018.0 |
| 20260505002615 | 76 | 146 | 2.0 | 3.0 | 0.00 | 0.00 | 0.00 | 74 | 1018.0 |
| 20260505002115 | 76 | 283 | 2.0 | 3.0 | 0.00 | 0.00 | 0.00 | 73 | 1018.0 |
| 20260505001615 | 76 | 184 | 6.0 | 6.0 | 0.00 | 0.00 | 0.00 | 73 | 1018.0 |
| 20260505001115 | 75 | 204 | 4.0 | 5.0 | 0.00 | 0.00 | 0.00 | 75 | 1018.0 |
| 20260505000616 | 75 | 316 | 1.0 | 5.0 | 0.00 | 0.00 | 0.00 | 75 | 1018.0 |
| 20260505000115 | 75 | 241 | 4.0 | 4.0 | 0.00 | 0.00 | 0.00 | 74 | 1018.0 |
| 20260504235615 | 74 | 189 | 2.0 | 5.0 | 0.00 | 0.00 | 0.00 | 76 | 1018.0 |
| 20260504235116 | 74 | 298 | 1.0 | 4.0 | 0.00 | 0.00 | 0.00 | 78 | 1018.0 |
| 20260504234615 | 73 | 261 | 0.0 | 4.0 | 0.00 | 0.00 | 0.00 | 80 | 1018.0 |
| 20260504234115 | 73 | 260 | 5.0 | 5.0 | 0.00 | 0.00 | 0.00 | 80 | 1018.0 |
| 20260504233616 | 73 | 225 | 4.0 | 5.0 | 0.00 | 0.00 | 0.00 | 81 | 1018.0 |
| 20260504233115 | 72 | 244 | 4.0 | 6.0 | 0.00 | 0.00 | 0.00 | 82 | 1019.0 |
| 20260504232616 | 72 | 186 | 1.0 | 6.0 | 0.00 | 0.00 | 0.00 | 82 | 1018.0 |
| 20260504232115 | 72 | 197 | 3.0 | 4.0 | 0.00 | 0.00 | 0.00 | 83 | 1018.0 |
| 20260504231615 | 71 | 303 | 0.0 | 6.0 | 0.00 | 0.00 | 0.00 | 84 | 1019.0 |
| 20260504231115 | 71 | 170 | 3.0 | 6.0 | 0.00 | 0.00 | 0.00 | 84 | 1019.0 |
| 20260504230615 | 71 | 130 | 1.0 | 5.0 | 0.00 | 0.00 | 0.00 | 86 | 1018.0 |
| 20260504230121 | 70 | 273 | 0.0 | 5.0 | 0.00 | 0.00 | 0.00 | 87 | 1018.0 |
| 20260504225615 | 70 | 218 | 2.0 | 5.0 | 0.00 | 0.00 | 0.00 | 88 | 1018.0 |
| 20260504225115 | 69 | 199 | 3.0 | 6.0 | 0.00 | 0.00 | 0.00 | 89 | 1018.0 |
| 20260504224617 | 69 | 189 | 4.0 | 7.0 | 0.00 | 0.00 | 0.00 | 90 | 1018.0 |
| 20260504224117 | 69 | 158 | 2.0 | 6.0 | 0.00 | 0.00 | 0.00 | 91 | 1018.0 |
| 20260504223615 | 69 | 174 | 4.0 | 6.0 | 0.00 | 0.00 | 0.00 | 91 | 1018.0 |
| 20260504223116 | 68 | 209 | 3.0 | 3.0 | 0.00 | 0.00 | 0.00 | 96 | 1018.0 |
| 20260504222615 | 68 | 153 | 3.0 | 5.0 | 0.00 | 0.00 | 0.00 | 97 | 1018.0 |
| 20260504222116 | 67 | 225 | 0.0 | 4.0 | 0.00 | 0.00 | 0.00 | 98 | 1018.0 |
| 20260504221616 | 67 | 159 | 3.0 | 3.0 | 0.00 | 0.00 | 0.00 | 98 | 1018.0 |
| 20260504221116 | 66 | 229 | 1.0 | 6.0 | 0.00 | 0.00 | 0.00 | 98 | 1018.0 |
| 20260504220615 | 66 | 148 | 5.0 | 5.0 | 0.00 | 0.00 | 0.00 | 98 | 1018.0 |
| 20260504220115 | 66 | 173 | 1.0 | 3.0 | 0.00 | 0.00 | 0.00 | 98 | 1018.0 |
| 20260504215615 | 66 | 253 | 3.0 | 4.0 | 0.00 | 0.00 | 0.00 | 98 | 1018.0 |
| 20260504215115 | 66 | 126 | 2.0 | 3.0 | 0.00 | 0.00 | 0.00 | 98 | 1018.0 |
| 20260504214615 | 65 | 175 | 1.0 | 3.0 | 0.00 | 0.00 | 0.00 | 98 | 1018.0 |
| 20260504214115 | 65 | 248 | 0.0 | 2.0 | 0.00 | 0.00 | 0.00 | 98 | 1018.0 |
| 20260504213615 | 65 | 166 | 0.0 | 3.0 | 0.00 | 0.00 | 0.00 | 98 | 1018.0 |
| 20260504213117 | 65 | 139 | 3.0 | 5.0 | 0.00 | 0.00 | 0.00 | 98 | 1018.0 |
| 20260504212616 | 65 | 103 | 2.0 | 3.0 | 0.00 | 0.00 | 0.00 | 98 | 1018.0 |
| 20260504212115 | 65 | 231 | 2.0 | 4.0 | 0.00 | 0.00 | 0.00 | 98 | 1018.0 |
| 20260504211618 | 65 | 161 | 3.0 | 4.0 | 0.00 | 0.00 | 0.00 | 98 | 1018.0 |
| 20260504211116 | 64 | 266 | 1.0 | 4.0 | 0.00 | 0.00 | 0.00 | 98 | 1018.0 |
| 20260504210616 | 64 | 188 | 1.0 | 3.0 | 0.00 | 0.00 | 0.00 | 98 | 1018.0 |
| 20260504210115 | 64 | 182 | 3.0 | 3.0 | 0.00 | 0.00 | 0.00 | 98 | 1018.0 |
| 20260504205615 | 64 | 145 | 4.0 | 5.0 | 0.00 | 0.00 | 0.00 | 98 | 1018.0 |
| 20260504205116 | 64 | 177 | 2.0 | 3.0 | 0.00 | 0.00 | 0.00 | 98 | 1018.0 |
| 20260504204615 | 64 | 219 | 1.0 | 3.0 | 0.00 | 0.00 | 0.00 | 98 | 1018.0 |
| 20260504204115 | 64 | 106 | 0.0 | 2.0 | 0.00 | 0.00 | 0.00 | 98 | 1018.0 |
| 20260504203618 | 64 | 134 | 1.0 | 4.0 | 0.00 | 0.00 | 0.00 | 98 | 1018.0 |
| 20260504203115 | 64 | 163 | 3.0 | 3.0 | 0.00 | 0.00 | 0.00 | 98 | 1018.0 |
| 20260504202617 | 64 | 99 | 1.0 | 3.0 | 0.00 | 0.00 | 0.00 | 98 | 1018.0 |
| 20260504202115 | 64 | 221 | 1.0 | 5.0 | 0.00 | 0.00 | 0.00 | 98 | 1018.0 |
| 20260504201617 | 64 | 178 | 2.0 | 4.0 | 0.00 | 0.00 | 0.00 | 98 | 1018.0 |
| 20260504201116 | 64 | 149 | 3.0 | 3.0 | 0.00 | 0.00 | 0.00 | 98 | 1017.0 |
| 20260504200616 | 64 | 167 | 3.0 | 5.0 | 0.00 | 0.00 | 0.00 | 98 | 1017.0 |
| 20260504200115 | 64 | 220 | 3.0 | 5.0 | 0.00 | 0.00 | 0.00 | 98 | 1017.0 |
| 20260504195616 | 64 | 193 | 2.0 | 3.0 | 0.00 | 0.00 | 0.00 | 98 | 1017.0 |
| 20260504195117 | 64 | 252 | 2.0 | 3.0 | 0.00 | 0.00 | 0.00 | 98 | 1017.0 |
| 20260504194617 | 64 | 213 | 2.0 | 3.0 | 0.00 | 0.00 | 0.00 | 98 | 1017.0 |
| 20260504194118 | 64 | 45 | 1.0 | 3.0 | 0.00 | 0.00 | 0.00 | 98 | 1017.0 |
| 20260504193616 | 64 | 167 | 3.0 | 4.0 | 0.00 | 0.00 | 0.00 | 97 | 1017.0 |
| 20260504193115 | 64 | 179 | 0.0 | 3.0 | 0.00 | 0.00 | 0.00 | 98 | 1017.0 |
| 20260504192616 | 63 | 143 | 2.0 | 3.0 | 0.00 | 0.00 | 0.00 | 98 | 1017.0 |
| 20260504191630 | 64 | 239 | 1.0 | 4.0 | 0.00 | 0.00 | 0.00 | 97 | 1017.0 |
| 20260504191115 | 64 | 161 | 0.0 | 3.0 | 0.00 | 0.00 | 0.00 | 97 | 1017.0 |
| 20260504190615 | 64 | 167 | 1.0 | 2.0 | 0.00 | 0.00 | 0.00 | 97 | 1017.0 |
| 20260504190115 | 64 | 140 | 2.0 | 3.0 | 0.00 | 0.00 | 0.00 | 97 | 1017.0 |
| 20260504185616 | 64 | 129 | 2.0 | 3.0 | 0.00 | 0.00 | 0.00 | 97 | 1017.0 |
| 20260504185121 | 64 | 220 | 0.0 | 2.0 | 0.00 | 0.00 | 0.00 | 97 | 1017.0 |
| 20260504184615 | 64 | 161 | 1.0 | 2.0 | 0.00 | 0.00 | 0.00 | 97 | 1017.0 |
| 20260504184115 | 64 | 123 | 2.0 | 3.0 | 0.00 | 0.00 | 0.00 | 97 | 1017.0 |
| 20260504183615 | 64 | 89 | 0.0 | 2.0 | 0.00 | 0.00 | 0.00 | 97 | 1017.0 |
| 20260504183115 | 64 | 140 | 1.0 | 2.0 | 0.00 | 0.00 | 0.00 | 97 | 1016.0 |
| 20260504182615 | 64 | 187 | 1.0 | 3.0 | 0.00 | 0.00 | 0.00 | 97 | 1017.0 |
| 20260504182115 | 64 | 237 | 2.0 | 2.0 | 0.00 | 0.00 | 0.00 | 97 | 1016.0 |
| 20260504181616 | 64 | 151 | 1.0 | 3.0 | 0.00 | 0.00 | 0.00 | 97 | 1017.0 |
| 20260504181116 | 64 | 206 | 0.0 | 2.0 | 0.00 | 0.00 | 0.00 | 97 | 1016.0 |
| 20260504180616 | 64 | 98 | 1.0 | 2.0 | 0.00 | 0.00 | 0.00 | 97 | 1016.0 |
| 20260504180115 | 64 | 211 | 1.0 | 3.0 | 0.00 | 0.00 | 0.00 | 97 | 1016.0 |
| 20260504175616 | 65 | 300 | 0.0 | 2.0 | 0.00 | 0.00 | 0.00 | 97 | 1016.0 |
| 20260504175116 | 65 | 262 | 1.0 | 2.0 | 0.00 | 0.00 | 0.00 | 97 | 1016.0 |
| 20260504174616 | 65 | 279 | 1.0 | 2.0 | 0.00 | 0.00 | 0.00 | 97 | 1016.0 |
| 20260504174118 | 65 | 180 | 2.0 | 2.0 | 0.00 | 0.00 | 0.00 | 97 | 1016.0 |
| 20260504173616 | 65 | 180 | 0.0 | 2.0 | 0.00 | 0.00 | 0.00 | 97 | 1017.0 |
| 20260504173116 | 65 | 267 | 2.0 | 3.0 | 0.00 | 0.00 | 0.00 | 97 | 1017.0 |
| 20260504172616 | 65 | 278 | 2.0 | 4.0 | 0.00 | 0.00 | 0.00 | 97 | 1016.0 |
| 20260504172116 | 65 | 175 | 2.0 | 2.0 | 0.00 | 0.00 | 0.00 | 97 | 1016.0 |
| 20260504171616 | 65 | 214 | 1.0 | 4.0 | 0.00 | 0.00 | 0.00 | 97 | 1016.0 |
| 20260504171115 | 65 | 273 | 1.0 | 3.0 | 0.00 | 0.00 | 0.00 | 97 | 1016.0 |
| 20260504170616 | 65 | 247 | 2.0 | 3.0 | 0.00 | 0.00 | 0.00 | 97 | 1017.0 |
| 20260504170115 | 66 | 235 | 1.0 | 3.0 | 0.00 | 0.00 | 0.00 | 97 | 1016.0 |
| 20260504160117 | 65 | 187 | 2.0 | 3.0 | 0.00 | 0.00 | 0.00 | 96 | 1017.0 |
| 20260504151116 | 66 | 235 | 0.0 | 2.0 | 0.00 | 0.00 | 0.00 | 95 | 1017.0 |
| 20260504150616 | 66 | 40 | 1.0 | 2.0 | 0.00 | 0.00 | 0.00 | 95 | 1017.0 |
| 20260504150116 | 67 | 180 | 2.0 | 2.0 | 0.00 | 0.00 | 0.00 | 95 | 1017.0 |
| 20260504141117 | 66 | 146 | 2.0 | 3.0 | 0.00 | 0.00 | 0.00 | 95 | 1017.0 |
| 20260504140620 | 66 | 300 | 1.0 | 3.0 | 0.00 | 0.00 | 0.00 | 95 | 1018.0 |
| 20260504140120 | 66 | 147 | 2.0 | 3.0 | 0.00 | 0.00 | 0.00 | 95 | 1018.0 |
| 20260504130619 | 67 | 224 | 2.0 | 3.0 | 0.00 | 0.00 | 0.00 | 93 | 1018.0 |
| 20260504130119 | 67 | 132 | 0.0 | 4.0 | 0.00 | 0.00 | 0.00 | 93 | 1018.0 |
| 20260504120115 | 69 | 122 | 2.0 | 3.0 | 0.00 | 0.00 | 0.00 | 91 | 1018.0 |
| 20260504110615 | 69 | 111 | 2.0 | 5.0 | 0.00 | 0.00 | 0.00 | 91 | 1019.0 |
| 20260504110115 | 69 | 112 | 4.0 | 5.0 | 0.00 | 0.00 | 0.00 | 91 | 1019.0 |
| 20260504100615 | 69 | 121 | 2.0 | 3.0 | 0.00 | 0.00 | 0.00 | 90 | 1019.0 |
| 20260504100115 | 70 | 110 | 1.0 | 3.0 | 0.00 | 0.00 | 0.00 | 89 | 1018.0 |